[[{"header":{"parameterUnit":"m.s-1","parameterCategory":1,"la1":30.2991,"la2":30.254,"lo1":-89.0895,"lo2":-89.0444,"dy":0.0017,"dx":0.0017,"nx":28,"ny":28,"refTime":"2025-07-03T03:00:00:Z","depth":0,"parameterNumber":2,"parameterNumberName":"U-component_of_WINDS"},"data":[0,0,0,0,0,0,0,0,0,0,0,0,0,0,0,0,0,0,0,0,0,0,0,0,0,0,0,0,0,0,0,0,0,0,0,0,0,0,0,0,0,0,0,0,0,0,0,0,0,0,0,0,0,0,0,0,0,0,0.8041,0.8042,0,0.8155,0.8156,0.8157,0.8179,0.8178,0.8177,0.8176,0.8297,0.8301,0.8305,0,0,0,0,0,0,0,0,0,0,0,0,0,0.7849,0.7853,0.8041,0.8043,0.8044,0.8154,0.8156,0.8158,0.8179,0.8178,0.8177,0.8176,0.8296,0.8301,0.8306,0,0,0,0,0,0,0,0,0,0,0,0,0,0.7945,0.7854,0.8041,0.8068,0.8071,0.8154,0.8156,0.8158,0.818,0.8178,0.8177,0.8175,0.8295,0.83,0.8306,0.8372,0,0,0.8325,0.8328,0,0,0,0,0,0,0,0,0.7939,0.7952,0.8063,0.8066,0.807,0.8151,0.8133,0.823,0.818,0.8139,0.8176,0.8175,0.825,0.826,0.8284,0.8377,0.8382,0.8326,0.8329,0.8332,0.8334,0,0,0,0,0,0,0,0.7933,0.7947,0.8086,0.8064,0.8069,0.8077,0.8089,0.8151,0.8201,0.8142,0.8144,0.8157,0.8252,0.8278,0.8287,0.8384,0.8326,0.8331,0.8335,0.8337,0.854,0.8542,0,0,0,0,0,0,0.7921,0.7941,0.8083,0.809,0.8,0.8081,0.8095,0.8127,0.82,0.821,0.8158,0.8157,0.8269,0.828,0.8292,0.8376,0.8332,0.8338,0.8341,0.8539,0.8541,0.8543,0,0,0,0,0,0,0.7916,0.7933,0.8078,0.8016,0.8035,0.8086,0.8122,0.813,0.8156,0.8212,0.8222,0.8175,0.8268,0.8283,0.8352,0.838,0.834,0.8346,0.8537,0.8539,0.8542,0.8542,0,0,0,0,0,0,0.7911,0.7931,0.7955,0.8016,0.8038,0.8135,0.8123,0.8133,0.8166,0.8166,0.8231,0.824,0.8268,0.8343,0.8358,0.8388,0.8351,0.8534,0.8538,0.8541,0.854,0.8545,0.8549,0,0,0,0,0,0.7904,0.7951,0.7956,0.7973,0.8069,0.8136,0.8149,0.8178,0.8168,0.8194,0.823,0.8238,0.8374,0.835,0.8367,0.8399,0.8533,0.8537,0.8541,0.8538,0.8544,0.8548,0,0,0,0,0,0,0.7892,0.7959,0.7966,0.8034,0.8079,0.814,0.8173,0.8183,0.8233,0.8232,0.8268,0.8282,0.835,0.8381,0.8353,0.8468,0.8453,0.8461,0.8445,0.8451,0.8455,0.8448,0.8356,0,0,0,0,0,0.7897,0.7945,0.8001,0.8056,0.8078,0.8121,0.8152,0.8171,0.822,0.824,0.8281,0.833,0.8384,0.8419,0.8471,0.8544,0.8561,0.8575,0.8579,0.8582,0.8589,0.8634,0.8642,0.8556,0.8555,0.8555,0,0,0.7909,0.7952,0.7979,0.8055,0.8092,0.8143,0.8137,0.8191,0.823,0.8248,0.8316,0.8349,0.8406,0.8478,0.8512,0.8506,0.8617,0.8587,0.8589,0.8595,0.8639,0.8647,0.8654,0.8558,0.8558,0.8557,0,0,0.7957,0.7992,0.8043,0.8081,0.8137,0.8166,0.8178,0.8238,0.826,0.8328,0.8344,0.8392,0.8483,0.8524,0.8557,0.8622,0.8633,0.8638,0.8661,0.8704,0.8711,0.8717,0.8744,0.8753,0.8644,0.8644,0.8644,0,0.7965,0.804,0.8068,0.8122,0.8156,0.8174,0.8228,0.8263,0.8334,0.8359,0.835,0.8467,0.8507,0.859,0.8607,0.8631,0.8649,0.8632,0.8707,0.8714,0.872,0.8746,0.8756,0.8645,0.8645,0.8645,0.8645,0,0.8049,0.8101,0.8136,0.8204,0.8241,0.8294,0.8333,0.8368,0.8384,0.8415,0.8486,0.8534,0.8598,0.8619,0.8635,0.8706,0.8701,0.87,0.8686,0.8729,0.8754,0.8764,0.8646,0.8645,0.8645,0.8645,0,0,0.8094,0.8177,0.8189,0.8222,0.8286,0.8328,0.8383,0.8444,0.8476,0.8524,0.8574,0.8651,0.8651,0.8688,0.8709,0.8747,0.88,0.8741,0.8743,0.8753,0.8886,0.8888,0.8899,0.8806,0.8808,0.881,0.8882,0,0.8152,0.8249,0.8277,0.836,0.8411,0.8429,0.8478,0.8524,0.8554,0.8603,0.8637,0.8693,0.8686,0.8709,0.8747,0.8785,0.8827,0.878,0.8856,0.8859,0.8844,0.8912,0.8915,0.898,0.8892,0.8893,0.8894,0,0.8232,0.8282,0.837,0.843,0.8453,0.8495,0.8556,0.8601,0.8655,0.8675,0.8717,0.8735,0.8797,0.8778,0.8865,0.8832,0.8865,0.8889,0.8892,0.8903,0.8881,0.8928,0.9001,0.9013,0.8909,0.8908,0.8907,0,0.826,0.8349,0.8414,0.8441,0.8511,0.8542,0.8573,0.8625,0.8662,0.8715,0.8739,0.8799,0.8832,0.888,0.8915,0.8897,0.9,0.8983,0.9021,0.9021,0.9044,0.9043,0.9128,0.906,0.906,0.9059,0.9059,0,0.8324,0.8378,0.8428,0.8468,0.8531,0.8563,0.8624,0.8657,0.8703,0.8753,0.8772,0.8818,0.886,0.8912,0.894,0.901,0.9024,0.9045,0.9052,0.9045,0.9043,0.9069,0.9067,0.9062,0.9062,0.9061,0.9061,0,0.8366,0.8401,0.8474,0.8535,0.8552,0.8596,0.8649,0.8691,0.8721,0.8784,0.88,0.885,0.8913,0.8952,0.9032,0.9051,0.9129,0.9133,0.9111,0.9115,0.9152,0.9149,0.9259,0.9277,0.9194,0.9194,0.9195,0,0.8406,0.8448,0.8514,0.8547,0.8579,0.8632,0.8669,0.8703,0.8742,0.8807,0.8842,0.8906,0.8959,0.906,0.9104,0.9167,0.9174,0.9209,0.9184,0.9177,0.918,0.9178,0.9184,0.9214,0.9214,0.9215,0.9215,0,0.8474,0.849,0.8541,0.86,0.8644,0.8692,0.874,0.8767,0.881,0.8852,0.8916,0.8958,0.904,0.9105,0.9171,0.9206,0.922,0.9222,0.9235,0.923,0.9217,0.9228,0.9125,0.922,0.922,0.922,0.9219,0.9219,0.8519,0.8559,0.8611,0.8669,0.8709,0.8754,0.8797,0.8833,0.8886,0.8955,0.8972,0.9041,0.9097,0.9187,0.9223,0.9279,0.9275,0.9292,0.9297,0.9302,0.9305,0.9205,0.9291,0.9291,0.9291,0.9291,0.9291,0,0.8591,0.8626,0.8679,0.8746,0.8792,0.8798,0.8852,0.8892,0.8951,0.9001,0.9053,0.9129,0.9192,0.9241,0.9307,0.9343,0.9351,0.9359,0.9359,0.9368,0.9303,0.9287,0.9352,0.9352,0.9352,0.9352,0.9352,0.9352,0.8634,0.8703,0.8725,0.8814,0.885,0.8916,0.8947,0.899,0.903,0.9113,0.9165,0.9196,0.9248,0.9318,0.9377,0.939,0.9415,0.9423,0.9438,0.9378,0.9371,0.9365,0.9351,0.9428,0.9428,0.9498,0.9499,0.95]},{"header":{"parameterUnit":"m.s-1","parameterCategory":1,"la1":30.2991,"la2":30.254,"lo1":-89.0895,"lo2":-89.0444,"dy":0.0017,"dx":0.0017,"nx":28,"ny":28,"refTime":"2025-07-03T03:00:00:Z","depth":0,"parameterNumber":3,"parameterNumberName":"V-component_of_WINDS"},"data":[0,0,0,0,0,0,0,0,0,0,0,0,0,0,0,0,0,0,0,0,0,0,0,0,0,0,0,0,0,0,0,0,0,0,0,0,0,0,0,0,0,0,0,0,0,0,0,0,0,0,0,0,0,0,0,0,0,0,-0.1472,-0.1473,0,-0.1523,-0.1524,-0.1525,-0.1593,-0.1594,-0.1595,-0.1596,-0.1647,-0.1648,-0.1648,0,0,0,0,0,0,0,0,0,0,0,0,0,-0.1431,-0.1432,-0.1472,-0.1473,-0.1473,-0.1523,-0.1524,-0.1525,-0.1592,-0.1594,-0.1595,-0.1596,-0.1647,-0.1648,-0.1648,0,0,0,0,0,0,0,0,0,0,0,0,0,-0.1462,-0.1432,-0.1472,-0.1513,-0.1517,-0.1523,-0.1524,-0.1525,-0.1592,-0.1594,-0.1595,-0.1597,-0.1647,-0.1648,-0.1648,-0.1617,0,0,-0.165,-0.165,0,0,0,0,0,0,0,0,-0.1461,-0.1464,-0.1506,-0.151,-0.1515,-0.1553,-0.1529,-0.1556,-0.1592,-0.1564,-0.1596,-0.1598,-0.1615,-0.1618,-0.1624,-0.162,-0.1622,-0.165,-0.165,-0.165,-0.165,0,0,0,0,0,0,0,-0.1458,-0.1462,-0.1492,-0.1507,-0.1512,-0.1529,-0.1535,-0.1534,-0.1579,-0.1566,-0.1571,-0.1576,-0.1617,-0.1623,-0.1626,-0.1623,-0.165,-0.165,-0.165,-0.1651,-0.1595,-0.1593,0,0,0,0,0,0,-0.145,-0.146,-0.1491,-0.1494,-0.1491,-0.1528,-0.1535,-0.1539,-0.1579,-0.1587,-0.1575,-0.1579,-0.1622,-0.1625,-0.1628,-0.1593,-0.165,-0.1651,-0.1651,-0.1597,-0.1594,-0.1592,0,0,0,0,0,0,-0.1449,-0.1452,-0.1489,-0.1478,-0.1484,-0.1527,-0.1531,-0.1539,-0.1545,-0.1586,-0.1594,-0.1573,-0.1623,-0.1627,-0.1619,-0.1596,-0.1651,-0.1651,-0.1599,-0.1596,-0.1593,-0.1524,0,0,0,0,0,0,-0.1448,-0.1452,-0.1441,-0.1477,-0.1484,-0.148,-0.153,-0.1539,-0.1546,-0.1552,-0.1586,-0.1593,-0.1625,-0.1618,-0.162,-0.1598,-0.1652,-0.1601,-0.1597,-0.1594,-0.1529,-0.152,-0.1512,0,0,0,0,0,-0.1446,-0.1419,-0.144,-0.1443,-0.1472,-0.1478,-0.1482,-0.1519,-0.1544,-0.1533,-0.1559,-0.1592,-0.1598,-0.1617,-0.1619,-0.1597,-0.1602,-0.1598,-0.1595,-0.1533,-0.1522,-0.1512,0,0,0,0,0,0,-0.1378,-0.1425,-0.1448,-0.1433,-0.1451,-0.149,-0.1477,-0.1506,-0.1518,-0.1523,-0.1568,-0.1575,-0.1561,-0.1579,-0.1598,-0.1569,-0.1605,-0.1602,-0.1558,-0.1547,-0.1539,-0.1534,-0.1652,0,0,0,0,0,-0.1362,-0.1363,-0.1404,-0.1386,-0.1394,-0.1434,-0.1438,-0.1465,-0.1486,-0.1494,-0.1519,-0.1537,-0.1544,-0.1547,-0.1555,-0.1532,-0.154,-0.1518,-0.1509,-0.1502,-0.1498,-0.1486,-0.1476,-0.1579,-0.1579,-0.1579,0,0,-0.1327,-0.1353,-0.1351,-0.1373,-0.1391,-0.1391,-0.144,-0.1438,-0.1438,-0.1493,-0.1487,-0.1506,-0.153,-0.1514,-0.1509,-0.1528,-0.1471,-0.1497,-0.1491,-0.1491,-0.1481,-0.1471,-0.1462,-0.1577,-0.1577,-0.1578,0,0,-0.1264,-0.1284,-0.1271,-0.1288,-0.1313,-0.134,-0.1336,-0.137,-0.1385,-0.138,-0.1421,-0.1422,-0.1431,-0.1446,-0.1455,-0.1396,-0.1427,-0.1398,-0.1353,-0.1341,-0.1332,-0.1325,-0.1303,-0.1295,-0.1394,-0.1394,-0.1394,0,-0.1218,-0.122,-0.1261,-0.1256,-0.1264,-0.1314,-0.1301,-0.1314,-0.1341,-0.1345,-0.1367,-0.1379,-0.1399,-0.1387,-0.1372,-0.1378,-0.1375,-0.1394,-0.133,-0.1324,-0.1318,-0.1297,-0.1289,-0.139,-0.139,-0.1391,-0.1391,0,-0.1161,-0.1162,-0.1149,-0.1173,-0.1179,-0.117,-0.1209,-0.1211,-0.1237,-0.126,-0.1254,-0.1279,-0.1292,-0.1292,-0.1317,-0.1283,-0.1294,-0.1322,-0.136,-0.1304,-0.1285,-0.1277,-0.1384,-0.1386,-0.1387,-0.1388,0,0,-0.1057,-0.1104,-0.1098,-0.1109,-0.114,-0.1141,-0.1134,-0.1147,-0.1147,-0.1164,-0.1158,-0.1165,-0.1191,-0.1201,-0.1229,-0.1218,-0.1169,-0.1248,-0.125,-0.1231,-0.1131,-0.1108,-0.1098,-0.119,-0.1188,-0.1187,-0.1128,0,-0.0999,-0.099,-0.1026,-0.1006,-0.1007,-0.1054,-0.1047,-0.1066,-0.1087,-0.1091,-0.1115,-0.1119,-0.1154,-0.116,-0.1152,-0.1176,-0.1149,-0.1182,-0.1184,-0.1183,-0.1175,-0.1089,-0.1065,-0.1008,-0.1121,-0.112,-0.1119,0,-0.093,-0.0943,-0.0923,-0.0955,-0.0956,-0.095,-0.0964,-0.0967,-0.0988,-0.1005,-0.1015,-0.1047,-0.1042,-0.1079,-0.1071,-0.1092,-0.1095,-0.1108,-0.1106,-0.1107,-0.1147,-0.1086,-0.0991,-0.0981,-0.1108,-0.1109,-0.111,0,-0.0854,-0.0866,-0.0856,-0.0864,-0.0901,-0.0895,-0.091,-0.0933,-0.0939,-0.0951,-0.0955,-0.0966,-0.0972,-0.098,-0.1014,-0.1038,-0.1002,-0.1042,-0.1015,-0.1014,-0.1004,-0.1004,-0.0907,-0.1008,-0.1008,-0.1008,-0.1009,0,-0.0785,-0.0771,-0.0822,-0.0816,-0.0801,-0.0842,-0.0827,-0.0846,-0.0866,-0.0864,-0.0906,-0.0902,-0.0948,-0.095,-0.0977,-0.0965,-0.0968,-0.0981,-0.0988,-0.0976,-0.0974,-0.0978,-0.0982,-0.1006,-0.1007,-0.1007,-0.1007,0,-0.0697,-0.0731,-0.0723,-0.0758,-0.0767,-0.0754,-0.0784,-0.0779,-0.0804,-0.08,-0.0802,-0.084,-0.0844,-0.0879,-0.0891,-0.0909,-0.0887,-0.0902,-0.0879,-0.0884,-0.0854,-0.0856,-0.0755,-0.0743,-0.0853,-0.0852,-0.0851,0,-0.065,-0.064,-0.0674,-0.0676,-0.0689,-0.0691,-0.0696,-0.0736,-0.074,-0.0763,-0.0755,-0.0762,-0.077,-0.0774,-0.0803,-0.0812,-0.0827,-0.0791,-0.0828,-0.0817,-0.0824,-0.0824,-0.0823,-0.0782,-0.0781,-0.078,-0.0779,0,-0.0562,-0.0579,-0.0586,-0.0597,-0.0602,-0.0613,-0.0627,-0.0626,-0.067,-0.0672,-0.0676,-0.0682,-0.0694,-0.0701,-0.0714,-0.073,-0.0761,-0.0767,-0.0761,-0.0748,-0.0735,-0.074,-0.0856,-0.0769,-0.077,-0.0771,-0.0771,-0.0772,-0.0493,-0.0486,-0.0508,-0.0513,-0.0528,-0.0539,-0.0536,-0.056,-0.0564,-0.0577,-0.06,-0.0601,-0.0622,-0.0644,-0.0656,-0.0657,-0.0675,-0.0667,-0.0665,-0.0661,-0.0655,-0.0736,-0.066,-0.066,-0.066,-0.0661,-0.0661,0,-0.0406,-0.0423,-0.0427,-0.0444,-0.0448,-0.0478,-0.0494,-0.0495,-0.0495,-0.0512,-0.0518,-0.0523,-0.0529,-0.0558,-0.0567,-0.0562,-0.0576,-0.0563,-0.0563,-0.0565,-0.0638,-0.0642,-0.0551,-0.0551,-0.0551,-0.0551,-0.0551,-0.0551,-0.0361,-0.035,-0.037,-0.0366,-0.0383,-0.0384,-0.039,-0.0401,-0.0414,-0.0417,-0.0422,-0.0441,-0.0463,-0.0473,-0.048,-0.0488,-0.0489,-0.047,-0.0483,-0.055,-0.0561,-0.0571,-0.0574,-0.0471,-0.047,-0.041,-0.041,-0.0409]}]]